Flag for Japan Weather past 2 weeks in Nagasaki, Japan

Now
75 °F

Partly sunny.


Feels Like: 77 °F
Forecast: 67 / 78 °F
Wind: 1 mph from North

Location: Nagasaki Airport

Current Time: Jul 2, 2015 at 10:42:01 AM

Latest Report: Jul 2, 2015 at 10:00 AM


Visibility: N/A

Pressure: 29.59 "Hg

Humidity: 65%

Dew point: 63 °F

Location of NagasakiLocation

Historic Weather in Nagasaki — Graph

°F

Nagasaki temperature yesterday

Maximum temperature yesterday: 75 °F (at 11:00 AM)
Minimum temperature yesterday: 72 °F (at 9:00 AM)
Average temperature yesterday: 73 °F

Past Weeks' High & Low Weather Summary

 TemperatureHumidityPressure
High84 °F (Jun 28, 2:00 PM)100% (Jun 17, 8:00 PM)29.89 "Hg (Jun 17, 8:00 PM)
Low68 °F (Jun 17, 5:00 PM)48% (Jun 29, 1:00 PM)29.39 "Hg (Jul 1, 7:00 AM)
Average74 °F84%29.66 "Hg
* Reported Jun 17 9:00 AM — Jul 2 9:00 AM, Nagasaki, Weather by CustomWeather, © 2015

Note: Actual official high and low records may vary slightly from our data, if they occured in-between our weather recording intervals... More about our weather records

Advertising

Nagasaki weather history for previous 24 hours

 ConditionsComfort  
Time TempWeatherWind HumidityBarometerVisibility
9:00 AM
Thu, Jul 2
75 °FPartly sunny.5 mph74%29.62 "HgN/A
8:00 AM72 °FPartly sunny.3 mph88%29.62 "HgN/A
7:00 AM70 °FPartly sunny.5 mph94%29.62 "HgN/A
9:00 PM
Wed, Jul 1
72 °FPartly cloudy.6 mph88%29.56 "HgN/A
8:00 PM72 °FPartly cloudy.7 mph88%29.56 "HgN/A
7:00 PM72 °FBroken clouds.8 mph88%29.53 "HgN/A
6:00 PM72 °FPartly sunny.8 mph88%29.50 "HgN/A
5:00 PM73 °FBroken clouds.8 mph83%29.50 "HgN/A
4:00 PM73 °FLight rain. Broken clouds.12 mph83%29.50 "HgN/A
3:00 PM73 °FLight rain. Broken clouds.6 mph83%29.50 "HgN/A
2:00 PM73 °FSprinkles. Broken clouds.5 mph83%29.47 "HgN/A
1:46 PM73 °FBroken clouds.5 mph83%29.47 "HgN/A
1:00 PM73 °FSprinkles. Broken clouds.12 mph89%29.47 "HgN/A
12:00 PM75 °FPartly sunny.9 mph78%29.47 "HgN/A
11:00 AM75 °FPartly sunny.8 mph78%29.45 "HgN/A
10:00 AM73 °FBroken clouds.12 mph83%29.45 "HgN/A
Weather by CustomWeather, © 2015

See weather overviewHow to use our weather pages